| time (UTC) | temp F | wind direction | speed MPH | gust MPH | rain 1hr in | rain 24hr in | rain mn in | humidity % | barometer mb |
| 20260505011014 | 60 | 0 | 0.0 | 0.0 | 0.00 | 0.00 | 0.00 | 58 | 1008.8 |
| 20260505010515 | 60 | 0 | 0.0 | 3.0 | 0.00 | 0.00 | 0.00 | 58 | 1008.7 |
| 20260505010027 | 60 | 0 | 0.0 | 3.0 | 0.00 | 0.00 | 0.00 | 55 | 1008.6 |
| 20260505005510 | 60 | 0 | 0.0 | 0.0 | 0.00 | 0.00 | 0.00 | 57 | 1008.4 |
| 20260505005012 | 60 | 0 | 0.0 | 0.0 | 0.00 | 0.00 | 0.00 | 56 | 1008.4 |
| 20260505004530 | 60 | 0 | 0.0 | 1.0 | 0.00 | 0.00 | 0.00 | 54 | 1008.4 |
| 20260505004011 | 61 | 0 | 0.0 | 1.0 | 0.00 | 0.00 | 0.00 | 56 | 1008.3 |
| 20260505003510 | 61 | 229 | 0.0 | 1.0 | 0.00 | 0.00 | 0.00 | 54 | 1008.2 |
| 20260505003029 | 61 | 0 | 0.0 | 1.0 | 0.00 | 0.00 | 0.00 | 54 | 1008.2 |
| 20260505002512 | 62 | 0 | 0.0 | 0.0 | 0.00 | 0.00 | 0.00 | 56 | 1008.1 |
| 20260505002010 | 62 | 0 | 0.0 | 0.0 | 0.00 | 0.00 | 0.00 | 52 | 1008.0 |
| 20260505001529 | 63 | 0 | 0.0 | 0.0 | 0.00 | 0.00 | 0.00 | 52 | 1007.9 |
| 20260505001015 | 64 | 0 | 0.0 | 0.0 | 0.00 | 0.00 | 0.00 | 49 | 1007.9 |
| 20260505000513 | 65 | 0 | 0.0 | 1.0 | 0.00 | 0.00 | 0.00 | 50 | 1007.7 |
| 20260505000032 | 66 | 0 | 0.0 | 1.0 | 0.00 | 0.00 | 0.00 | 46 | 1007.6 |
| 20260504235514 | 66 | 0 | 0.0 | 6.0 | 0.00 | 0.00 | 0.00 | 46 | 1007.6 |
| 20260504235011 | 67 | 0 | 0.0 | 6.0 | 0.00 | 0.00 | 0.00 | 46 | 1007.6 |
| 20260504234528 | 67 | 0 | 0.0 | 4.0 | 0.00 | 0.00 | 0.00 | 43 | 1007.5 |
| 20260504234014 | 67 | 0 | 0.0 | 4.0 | 0.00 | 0.00 | 0.00 | 44 | 1007.6 |
| 20260504233511 | 68 | 259 | 0.0 | 3.0 | 0.00 | 0.00 | 0.00 | 43 | 1007.5 |
| 20260504233028 | 68 | 0 | 0.0 | 8.0 | 0.00 | 0.00 | 0.00 | 42 | 1007.4 |
| 20260504232511 | 68 | 0 | 1.0 | 8.0 | 0.00 | 0.00 | 0.00 | 41 | 1007.4 |
| 20260504232011 | 69 | 0 | 1.0 | 5.0 | 0.00 | 0.00 | 0.00 | 41 | 1007.2 |
| 20260504231527 | 69 | 0 | 1.0 | 8.0 | 0.00 | 0.00 | 0.00 | 41 | 1007.2 |
| 20260504231011 | 69 | 0 | 0.0 | 9.0 | 0.00 | 0.00 | 0.00 | 41 | 1007.2 |
| 20260504230513 | 70 | 0 | 1.0 | 9.0 | 0.00 | 0.00 | 0.00 | 40 | 1007.2 |
| 20260504230031 | 70 | 0 | 2.0 | 9.0 | 0.00 | 0.00 | 0.00 | 42 | 1007.1 |
| 20260504225510 | 70 | 0 | 0.0 | 10.0 | 0.00 | 0.00 | 0.00 | 43 | 1007.1 |
| 20260504225013 | 70 | 0 | 2.0 | 10.0 | 0.00 | 0.00 | 0.00 | 40 | 1007.1 |
| 20260504224535 | 71 | 267 | 1.0 | 8.0 | 0.00 | 0.00 | 0.00 | 40 | 1007.1 |
| 20260504224012 | 71 | 179 | 2.0 | 8.0 | 0.00 | 0.00 | 0.00 | 38 | 1007.1 |
| 20260504223513 | 71 | 216 | 1.0 | 8.0 | 0.00 | 0.00 | 0.00 | 40 | 1007.1 |
| 20260504223030 | 71 | 0 | 1.0 | 8.0 | 0.00 | 0.00 | 0.00 | 41 | 1007.1 |
| 20260504222511 | 71 | 279 | 0.0 | 8.0 | 0.00 | 0.00 | 0.00 | 40 | 1007.1 |
| 20260504222013 | 71 | 176 | 1.0 | 8.0 | 0.00 | 0.00 | 0.00 | 42 | 1007.1 |
| 20260504221530 | 71 | 82 | 2.0 | 9.0 | 0.00 | 0.00 | 0.00 | 40 | 1007.0 |
| 20260504221012 | 71 | 0 | 1.0 | 10.0 | 0.00 | 0.00 | 0.00 | 40 | 1007.1 |
| 20260504220515 | 71 | 163 | 2.0 | 12.0 | 0.00 | 0.00 | 0.00 | 39 | 1007.2 |
| 20260504220030 | 72 | 160 | 2.0 | 12.0 | 0.00 | 0.00 | 0.00 | 38 | 1007.3 |
| 20260504215513 | 72 | 192 | 2.0 | 11.0 | 0.00 | 0.00 | 0.00 | 38 | 1007.3 |
| 20260504215011 | 72 | 309 | 5.0 | 11.0 | 0.00 | 0.00 | 0.00 | 37 | 1007.4 |
| 20260504214530 | 72 | 9 | 2.0 | 9.0 | 0.00 | 0.00 | 0.00 | 39 | 1007.4 |
| 20260504214014 | 72 | 202 | 2.0 | 8.0 | 0.00 | 0.00 | 0.00 | 40 | 1007.5 |
| 20260504213514 | 72 | 285 | 1.0 | 8.0 | 0.00 | 0.00 | 0.00 | 39 | 1007.4 |
| 20260504213028 | 73 | 271 | 2.0 | 8.0 | 0.00 | 0.00 | 0.00 | 38 | 1007.4 |
| 20260504212515 | 73 | 290 | 2.0 | 7.0 | 0.00 | 0.00 | 0.00 | 40 | 1007.4 |
| 20260504212015 | 73 | 207 | 2.0 | 8.0 | 0.00 | 0.00 | 0.00 | 39 | 1007.6 |
| 20260504211528 | 72 | 243 | 2.0 | 10.0 | 0.00 | 0.00 | 0.00 | 40 | 1007.7 |
| 20260504211014 | 72 | 0 | 1.0 | 10.0 | 0.00 | 0.00 | 0.00 | 39 | 1007.6 |
| 20260504210512 | 72 | 0 | 3.0 | 13.0 | 0.00 | 0.00 | 0.00 | 38 | 1007.6 |
| 20260504210037 | 72 | 46 | 3.0 | 13.0 | 0.00 | 0.00 | 0.00 | 40 | 1007.6 |
| 20260504205511 | 72 | 205 | 3.0 | 11.0 | 0.00 | 0.00 | 0.00 | 39 | 1007.6 |
| 20260504205010 | 72 | 0 | 3.0 | 11.0 | 0.00 | 0.00 | 0.00 | 36 | 1007.7 |
| 20260504204537 | 72 | 194 | 2.0 | 17.0 | 0.00 | 0.00 | 0.00 | 40 | 1007.8 |
| 20260504204010 | 72 | 242 | 4.0 | 17.0 | 0.00 | 0.00 | 0.00 | 40 | 1007.7 |
| 20260504203510 | 72 | 245 | 3.0 | 11.0 | 0.00 | 0.00 | 0.00 | 39 | 1007.8 |
| 20260504203031 | 72 | 207 | 3.0 | 11.0 | 0.00 | 0.00 | 0.00 | 41 | 1007.7 |
| 20260504202512 | 72 | 0 | 2.0 | 10.0 | 0.00 | 0.00 | 0.00 | 40 | 1007.7 |
| 20260504202012 | 72 | 227 | 3.0 | 11.0 | 0.00 | 0.00 | 0.00 | 40 | 1007.8 |
| 20260504201529 | 72 | 211 | 4.0 | 11.0 | 0.00 | 0.00 | 0.00 | 39 | 1007.8 |
| 20260504201011 | 72 | 293 | 2.0 | 9.0 | 0.00 | 0.00 | 0.00 | 40 | 1007.7 |
| 20260504200512 | 73 | 248 | 2.0 | 14.0 | 0.00 | 0.00 | 0.00 | 42 | 1007.8 |
| 20260504200030 | 72 | 0 | 2.0 | 14.0 | 0.00 | 0.00 | 0.00 | 43 | 1007.9 |
| 20260504195515 | 72 | 311 | 3.0 | 14.0 | 0.00 | 0.00 | 0.00 | 39 | 1007.9 |
| 20260504195013 | 72 | 255 | 2.0 | 10.0 | 0.00 | 0.00 | 0.00 | 41 | 1008.0 |
| 20260504194530 | 72 | 285 | 2.0 | 10.0 | 0.00 | 0.00 | 0.00 | 43 | 1008.1 |
| 20260504194012 | 72 | 224 | 2.0 | 14.0 | 0.00 | 0.00 | 0.00 | 40 | 1008.1 |
| 20260504193513 | 71 | 215 | 4.0 | 14.0 | 0.00 | 0.00 | 0.00 | 38 | 1008.2 |
| 20260504193028 | 72 | 300 | 4.0 | 11.0 | 0.00 | 0.00 | 0.00 | 40 | 1008.1 |
| 20260504192510 | 72 | 211 | 1.0 | 8.0 | 0.00 | 0.00 | 0.00 | 42 | 1008.1 |
| 20260504192014 | 71 | 223 | 0.0 | 14.0 | 0.00 | 0.00 | 0.00 | 44 | 1008.3 |
| 20260504191528 | 71 | 159 | 2.0 | 14.0 | 0.00 | 0.00 | 0.00 | 42 | 1008.5 |
| 20260504191012 | 71 | 192 | 3.0 | 11.0 | 0.00 | 0.00 | 0.00 | 39 | 1008.5 |
| 20260504190514 | 71 | 342 | 3.0 | 14.0 | 0.00 | 0.00 | 0.00 | 40 | 1008.4 |
| 20260504190031 | 71 | 250 | 5.0 | 16.0 | 0.00 | 0.00 | 0.00 | 38 | 1008.4 |
| 20260504185510 | 71 | 174 | 2.0 | 16.0 | 0.00 | 0.00 | 0.00 | 42 | 1008.5 |
| 20260504185013 | 71 | 171 | 5.0 | 15.0 | 0.00 | 0.00 | 0.00 | 38 | 1008.5 |
| 20260504184528 | 71 | 208 | 2.0 | 13.0 | 0.00 | 0.00 | 0.00 | 40 | 1008.7 |
| 20260504184011 | 71 | 170 | 4.0 | 13.0 | 0.00 | 0.00 | 0.00 | 41 | 1008.8 |
| 20260504183514 | 71 | 0 | 2.0 | 11.0 | 0.00 | 0.00 | 0.00 | 42 | 1008.9 |
| 20260504183027 | 70 | 211 | 2.0 | 11.0 | 0.00 | 0.00 | 0.00 | 45 | 1008.9 |
| 20260504182513 | 70 | 296 | 2.0 | 11.0 | 0.00 | 0.00 | 0.00 | 41 | 1008.9 |
| 20260504182013 | 70 | 0 | 2.0 | 16.0 | 0.00 | 0.00 | 0.00 | 42 | 1008.8 |
| 20260504181530 | 69 | 200 | 3.0 | 16.0 | 0.00 | 0.00 | 0.00 | 43 | 1009.0 |
| 20260504181011 | 69 | 298 | 5.0 | 16.0 | 0.00 | 0.00 | 0.00 | 38 | 1009.1 |
| 20260504180512 | 69 | 0 | 3.0 | 12.0 | 0.00 | 0.00 | 0.00 | 40 | 1009.2 |
| 20260504180030 | 69 | 242 | 5.0 | 13.0 | 0.00 | 0.00 | 0.00 | 42 | 1009.3 |
| 20260504175514 | 69 | 350 | 3.0 | 14.0 | 0.00 | 0.00 | 0.00 | 42 | 1009.3 |
| 20260504175010 | 68 | 300 | 4.0 | 14.0 | 0.00 | 0.00 | 0.00 | 42 | 1009.3 |
| 20260504174530 | 69 | 338 | 4.0 | 11.0 | 0.00 | 0.00 | 0.00 | 42 | 1009.3 |
| 20260504174011 | 69 | 324 | 4.0 | 11.0 | 0.00 | 0.00 | 0.00 | 48 | 1009.4 |
| 20260504173514 | 68 | 146 | 2.0 | 11.0 | 0.00 | 0.00 | 0.00 | 40 | 1009.5 |
| 20260504173030 | 68 | 202 | 3.0 | 11.0 | 0.00 | 0.00 | 0.00 | 47 | 1009.6 |
| 20260504172512 | 67 | 281 | 4.0 | 11.0 | 0.00 | 0.00 | 0.00 | 41 | 1009.6 |
| 20260504172011 | 68 | 225 | 3.0 | 15.0 | 0.00 | 0.00 | 0.00 | 46 | 1009.6 |
| 20260504171528 | 68 | 269 | 4.0 | 15.0 | 0.00 | 0.00 | 0.00 | 43 | 1009.8 |
| 20260504171014 | 68 | 288 | 2.0 | 9.0 | 0.00 | 0.00 | 0.00 | 43 | 1009.9 |
| 20260504170514 | 67 | 133 | 2.0 | 14.0 | 0.00 | 0.00 | 0.00 | 47 | 1009.8 |
| 20260504151012 | 64 | 23 | 3.0 | 15.0 | 0.00 | 0.00 | 0.00 | 45 | 1011.0 |
| 20260504150515 | 63 | 313 | 3.0 | 15.0 | 0.00 | 0.00 | 0.00 | 46 | 1011.0 |
| 20260504141011 | 62 | 248 | 3.0 | 12.0 | 0.00 | 0.00 | 0.00 | 44 | 1011.6 |
| 20260504140513 | 61 | 306 | 5.0 | 14.0 | 0.00 | 0.00 | 0.00 | 44 | 1011.5 |
| 20260504130513 | 58 | 317 | 4.0 | 12.0 | 0.00 | 0.00 | 0.00 | 49 | 1012.0 |
| 20260504110511 | 48 | 0 | 1.0 | 7.0 | 0.00 | 0.00 | 0.00 | 64 | 1012.2 |
| 20260504100511 | 43 | 0 | 0.0 | 3.0 | 0.00 | 0.00 | 0.00 | 72 | 1011.8 |
| 20260504081531 | 34 | 0 | 0.0 | 0.0 | 0.00 | 0.00 | 0.00 | 89 | 1011.9 |
| 20260504081011 | 34 | 0 | 0.0 | 0.0 | 0.00 | 0.00 | 0.00 | 89 | 1011.9 |
| 20260504080511 | 34 | 0 | 0.0 | 0.0 | 0.00 | 0.00 | 0.00 | 89 | 1011.8 |
| 20260504050513 | 38 | 0 | 0.0 | 0.0 | 0.00 | 0.00 | 0.00 | 85 | 1011.3 |
| 20260504045510 | 38 | 0 | 0.0 | 0.0 | 0.00 | 0.00 | 0.00 | 85 | 1011.1 |
| 20260504045011 | 38 | 0 | 0.0 | 0.0 | 0.00 | 0.00 | 0.00 | 85 | 1011.1 |
| 20260504044528 | 38 | 0 | 0.0 | 0.0 | 0.00 | 0.00 | 0.00 | 85 | 1011.2 |
| 20260504044012 | 38 | 0 | 0.0 | 0.0 | 0.00 | 0.00 | 0.00 | 85 | 1011.1 |
| 20260504043515 | 38 | 0 | 0.0 | 0.0 | 0.00 | 0.00 | 0.00 | 85 | 1011.0 |
| 20260504043030 | 38 | 0 | 0.0 | 0.0 | 0.00 | 0.00 | 0.00 | 85 | 1010.9 |
| 20260504042513 | 38 | 0 | 0.0 | 0.0 | 0.00 | 0.00 | 0.00 | 85 | 1011.1 |
| 20260504042012 | 38 | 0 | 0.0 | 0.0 | 0.00 | 0.00 | 0.00 | 85 | 1011.0 |
| 20260504041540 | 38 | 0 | 0.0 | 0.0 | 0.00 | 0.00 | 0.00 | 84 | 1011.0 |
| 20260504041010 | 39 | 0 | 0.0 | 0.0 | 0.00 | 0.00 | 0.00 | 84 | 1010.9 |
| 20260504040511 | 39 | 0 | 0.0 | 0.0 | 0.00 | 0.00 | 0.00 | 84 | 1011.0 |
| 20260504040032 | 39 | 0 | 0.0 | 0.0 | 0.00 | 0.00 | 0.00 | 84 | 1010.9 |
| 20260504035510 | 39 | 0 | 0.0 | 0.0 | 0.00 | 0.00 | 0.00 | 84 | 1010.9 |
| 20260504035014 | 39 | 0 | 0.0 | 0.0 | 0.00 | 0.00 | 0.00 | 84 | 1010.9 |
| 20260504034538 | 39 | 0 | 0.0 | 0.0 | 0.00 | 0.00 | 0.00 | 84 | 1010.9 |
| 20260504034013 | 39 | 0 | 0.0 | 0.0 | 0.00 | 0.00 | 0.00 | 84 | 1010.9 |
| 20260504033551 | 39 | 0 | 0.0 | 0.0 | 0.00 | 0.00 | 0.00 | 83 | 1010.9 |
| 20260504033028 | 39 | 0 | 0.0 | 0.0 | 0.00 | 0.00 | 0.00 | 83 | 1010.9 |
| 20260504032515 | 40 | 0 | 0.0 | 0.0 | 0.00 | 0.00 | 0.00 | 83 | 1010.9 |
| 20260504032012 | 40 | 0 | 0.0 | 0.0 | 0.00 | 0.00 | 0.00 | 83 | 1010.9 |
| 20260504031528 | 40 | 0 | 0.0 | 0.0 | 0.00 | 0.00 | 0.00 | 82 | 1010.9 |
| 20260504031012 | 40 | 0 | 0.0 | 0.0 | 0.00 | 0.00 | 0.00 | 81 | 1010.9 |
| 20260504030511 | 40 | 0 | 0.0 | 0.0 | 0.00 | 0.00 | 0.00 | 81 | 1010.9 |
| 20260504030032 | 40 | 0 | 0.0 | 0.0 | 0.00 | 0.00 | 0.00 | 80 | 1010.9 |
| 20260504025514 | 40 | 0 | 0.0 | 0.0 | 0.00 | 0.00 | 0.00 | 80 | 1010.9 |
| 20260504025015 | 40 | 0 | 0.0 | 0.0 | 0.00 | 0.00 | 0.00 | 79 | 1010.9 |
| 20260504024530 | 41 | 0 | 0.0 | 0.0 | 0.00 | 0.00 | 0.00 | 79 | 1011.0 |
| 20260504024013 | 41 | 0 | 0.0 | 0.0 | 0.00 | 0.00 | 0.00 | 78 | 1011.2 |
| 20260504023513 | 41 | 0 | 0.0 | 0.0 | 0.00 | 0.00 | 0.00 | 78 | 1011.1 |
| 20260504023030 | 41 | 0 | 0.0 | 0.0 | 0.00 | 0.00 | 0.00 | 78 | 1011.0 |
| 20260504022510 | 41 | 0 | 0.0 | 0.0 | 0.00 | 0.00 | 0.00 | 78 | 1011.2 |
| 20260504022011 | 41 | 0 | 0.0 | 0.0 | 0.00 | 0.00 | 0.00 | 76 | 1011.1 |
| 20260504021530 | 42 | 0 | 0.0 | 0.0 | 0.00 | 0.00 | 0.00 | 75 | 1011.1 |
| 20260504021013 | 42 | 0 | 0.0 | 0.0 | 0.00 | 0.00 | 0.00 | 75 | 1011.1 |
| 20260504020514 | 42 | 0 | 0.0 | 0.0 | 0.00 | 0.00 | 0.00 | 75 | 1011.1 |
| 20260504020036 | 42 | 0 | 0.0 | 0.0 | 0.00 | 0.00 | 0.00 | 75 | 1011.1 |
| 20260504015512 | 43 | 0 | 0.0 | 0.0 | 0.00 | 0.00 | 0.00 | 74 | 1010.9 |
| 20260504015014 | 43 | 0 | 0.0 | 0.0 | 0.00 | 0.00 | 0.00 | 73 | 1010.9 |
| 20260504014531 | 43 | 0 | 0.0 | 0.0 | 0.00 | 0.00 | 0.00 | 71 | 1010.8 |
| 20260504014015 | 44 | 0 | 0.0 | 0.0 | 0.00 | 0.00 | 0.00 | 72 | 1010.8 |
| 20260504013513 | 44 | 0 | 0.0 | 0.0 | 0.00 | 0.00 | 0.00 | 71 | 1010.9 |
| 20260504013032 | 44 | 0 | 0.0 | 0.0 | 0.00 | 0.00 | 0.00 | 70 | 1010.8 |
| 20260504012511 | 44 | 0 | 0.0 | 0.0 | 0.00 | 0.00 | 0.00 | 70 | 1010.9 |
| 20260504012011 | 44 | 0 | 0.0 | 0.0 | 0.00 | 0.00 | 0.00 | 69 | 1010.9 |
| 20260504011529 | 45 | 0 | 0.0 | 0.0 | 0.00 | 0.00 | 0.00 | 68 | 1011.0 |